Time,TemperatureF,DewpointF,PressureIn,WindDirection,WindDirectionDegrees,WindSpeedMPH,WindSpeedGustMPH,Humidity,HourlyPrecipIn,Conditions,Clouds,dailyrainin,SoftwareType,DateUTC
2013-04-11 00:00:00,44.1,43.3,29.68,ESE,107,7.0,16.0,97,0.02,,---,0.00,VWS V14.01,2013-04-11 05:00:00,
2013-04-11 00:05:00,44.1,43.3,29.67,ESE,117,11.0,16.0,97,0.02,,---,0.00,VWS V14.01,2013-04-11 05:05:00,
2013-04-11 00:10:00,44.1,43.3,29.66,ESE,103,18.0,18.0,97,0.02,,---,0.00,VWS V14.01,2013-04-11 05:10:00,
2013-04-11 00:15:00,44.2,43.4,29.65,SE,146,10.0,18.0,97,0.02,,---,0.00,VWS V14.01,2013-04-11 05:15:00,
2013-04-11 00:20:00,44.2,43.4,29.65,East,100,10.0,18.0,97,0.02,,---,0.00,VWS V14.01,2013-04-11 05:20:00,
2013-04-11 00:25:00,44.3,43.5,29.64,East,94,8.0,18.0,97,0.02,,---,0.00,VWS V14.01,2013-04-11 05:25:00,
2013-04-11 00:30:00,44.5,43.7,29.64,SSE,168,10.0,13.0,97,0.00,,---,0.00,VWS V14.01,2013-04-11 05:30:00,
2013-04-11 00:35:00,44.6,43.8,29.64,ESE,103,10.0,14.0,97,0.00,,---,0.00,VWS V14.01,2013-04-11 05:35:00,
2013-04-11 00:40:00,44.7,43.9,29.64,ESE,119,8.0,16.0,97,0.00,,---,0.00,VWS V14.01,2013-04-11 05:40:00,
2013-04-11 00:45:00,45.0,44.2,29.64,ENE,78,8.0,16.0,97,0.00,,---,0.00,VWS V14.01,2013-04-11 05:45:00,
2013-04-11 00:50:00,45.0,44.2,29.64,ENE,63,6.0,16.0,97,0.00,,---,0.00,VWS V14.01,2013-04-11 05:50:00,
2013-04-11 00:55:00,45.2,44.4,29.64,East,87,7.0,16.0,97,0.00,,---,0.00,VWS V14.01,2013-04-11 05:55:00,
2013-04-11 01:00:00,45.3,44.5,29.65,East,86,11.0,13.0,97,0.00,,---,0.00,VWS V14.01,2013-04-11 06:00:00,
2013-04-11 01:05:00,45.4,44.6,29.64,East,94,9.0,13.0,97,0.00,,---,0.00,VWS V14.01,2013-04-11 06:05:00,
2013-04-11 01:10:00,45.5,44.7,29.64,East,97,7.0,18.0,97,0.00,,---,0.00,VWS V14.01,2013-04-11 06:10:00,
2013-04-11 01:15:00,45.6,44.8,29.65,ESE,107,15.0,18.0,97,0.00,,---,0.00,VWS V14.01,2013-04-11 06:15:00,
2013-04-11 01:20:00,45.6,44.8,29.64,ESE,103,8.0,18.0,97,0.00,,---,0.00,VWS V14.01,2013-04-11 06:20:00,
2013-04-11 01:25:00,45.6,44.8,29.64,ESE,105,7.0,18.0,97,0.00,,---,0.00,VWS V14.01,2013-04-11 06:25:00,
2013-04-11 01:30:00,45.6,44.8,29.64,ESE,119,11.0,11.0,97,0.00,,---,0.00,VWS V14.01,2013-04-11 06:30:00,
2013-04-11 01:35:00,45.7,44.9,29.64,East,86,9.0,14.0,97,0.00,,---,0.00,VWS V14.01,2013-04-11 06:35:00,
2013-04-11 01:40:00,45.6,44.8,29.64,SE,133,10.0,14.0,97,0.00,,---,0.00,VWS V14.01,2013-04-11 06:40:00,
2013-04-11 01:45:00,45.6,44.8,29.65,ESE,106,13.0,16.0,97,0.00,,---,0.00,VWS V14.01,2013-04-11 06:45:00,
2013-04-11 01:50:00,45.6,44.8,29.65,ESE,112,10.0,16.0,97,0.00,,---,0.00,VWS V14.01,2013-04-11 06:50:00,
2013-04-11 01:55:00,45.6,44.5,29.65,ESE,111,10.0,16.0,96,0.00,,---,0.00,VWS V14.01,2013-04-11 06:55:00,
2013-04-11 02:00:00,45.6,44.5,29.65,East,81,10.0,10.0,96,0.00,,---,0.00,VWS V14.01,2013-04-11 07:00:00,
2013-04-11 02:05:00,45.6,44.5,29.65,SE,140,7.0,16.0,96,0.00,,---,0.00,VWS V14.01,2013-04-11 07:05:00,
2013-04-11 02:10:00,45.6,44.5,29.65,SE,136,7.0,16.0,96,0.00,,---,0.00,VWS V14.01,2013-04-11 07:10:00,
2013-04-11 02:15:00,45.5,44.4,29.65,SE,144,7.0,16.0,96,0.00,,---,0.00,VWS V14.01,2013-04-11 07:15:00,
2013-04-11 02:20:00,45.5,44.4,29.66,SSE,152,9.0,16.0,96,0.00,,---,0.00,VWS V14.01,2013-04-11 07:20:00,
2013-04-11 02:25:00,45.5,44.4,29.66,SE,127,6.0,16.0,96,0.00,,---,0.00,VWS V14.01,2013-04-11 07:25:00,
2013-04-11 02:30:00,45.5,44.4,29.66,SE,128,5.0,8.0,96,0.00,,---,0.00,VWS V14.01,2013-04-11 07:30:00,
2013-04-11 02:35:00,45.5,44.4,29.66,ESE,116,6.0,16.0,96,0.00,,---,0.00,VWS V14.01,2013-04-11 07:35:00,
2013-04-11 02:40:00,45.5,44.4,29.65,SE,138,8.0,16.0,96,0.00,,---,0.00,VWS V14.01,2013-04-11 07:40:00,
2013-04-11 02:45:00,45.5,44.4,29.65,SE,133,8.0,16.0,96,0.00,,---,0.00,VWS V14.01,2013-04-11 07:45:00,
2013-04-11 02:50:00,45.5,44.4,29.65,SE,124,4.0,16.0,96,0.00,,---,0.00,VWS V14.01,2013-04-11 07:50:00,
2013-04-11 02:55:00,45.6,44.5,29.65,SE,132,6.0,16.0,96,0.00,,---,0.00,VWS V14.01,2013-04-11 07:55:00,
2013-04-11 03:00:00,45.6,44.5,29.65,ENE,76,5.0,8.0,96,0.00,,---,0.00,VWS V14.01,2013-04-11 08:00:00,
2013-04-11 03:05:00,45.6,44.5,29.65,ESE,120,11.0,11.0,96,0.00,,---,0.00,VWS V14.01,2013-04-11 08:05:00,
2013-04-11 03:10:00,45.6,44.5,29.65,SE,132,7.0,12.0,96,0.00,,---,0.00,VWS V14.01,2013-04-11 08:10:00,
2013-04-11 03:14:00,45.6,44.5,29.65,ESE,123,6.0,12.0,96,0.00,,---,0.00,VWS V14.01,2013-04-11 08:14:00,
2013-04-11 03:19:00,45.7,44.6,29.64,SE,129,6.0,12.0,96,0.00,,---,0.00,VWS V14.01,2013-04-11 08:19:00,
2013-04-11 03:24:00,45.7,44.6,29.64,SE,128,5.0,12.0,96,0.00,,---,0.00,VWS V14.01,2013-04-11 08:24:00,
2013-04-11 03:29:00,45.7,44.6,29.62,ESE,122,4.0,6.0,96,0.00,,---,0.00,VWS V14.01,2013-04-11 08:29:00,
2013-04-11 03:30:00,45.7,44.6,29.63,SE,130,6.0,12.0,96,0.00,,---,0.00,VWS V14.01,2013-04-11 08:30:00,
2013-04-11 03:34:00,45.7,44.6,29.62,ESE,113,6.0,7.0,96,0.00,,---,0.00,VWS V14.01,2013-04-11 08:34:00,
2013-04-11 03:39:00,45.7,44.9,29.62,ESE,110,6.0,9.0,97,0.00,,---,0.00,VWS V14.01,2013-04-11 08:39:00,
2013-04-11 03:45:00,45.8,45.0,29.63,ESE,115,3.0,9.0,97,0.00,,---,0.00,VWS V14.01,2013-04-11 08:45:00,
2013-04-11 03:50:00,45.8,45.0,29.62,ESE,105,6.0,9.0,97,0.00,,---,0.00,VWS V14.01,2013-04-11 08:50:00,
2013-04-11 03:54:00,45.7,44.9,29.62,ESE,123,0.0,9.0,97,0.00,,---,0.00,VWS V14.01,2013-04-11 08:54:00,
2013-04-11 03:59:00,45.7,44.9,29.63,East,101,1.0,4.0,97,0.00,,---,0.00,VWS V14.01,2013-04-11 08:59:00,
2013-04-11 04:00:00,45.7,44.9,29.62,East,101,3.0,9.0,97,0.00,,---,0.00,VWS V14.01,2013-04-11 09:00:00,
2013-04-11 04:04:00,45.7,44.9,29.63,ESE,118,2.0,6.0,97,0.00,,---,0.00,VWS V14.01,2013-04-11 09:04:00,
2013-04-11 04:10:00,45.8,45.0,29.63,SE,126,0.0,6.0,97,0.00,,---,0.00,VWS V14.01,2013-04-11 09:10:00,
2013-04-11 04:15:00,45.7,44.9,29.63,ESE,119,2.0,6.0,97,0.00,,---,0.00,VWS V14.01,2013-04-11 09:15:00,
2013-04-11 04:20:00,45.7,44.9,29.63,ESE,119,1.0,6.0,97,0.00,,---,0.00,VWS V14.01,2013-04-11 09:20:00,
2013-04-11 04:25:00,45.7,44.9,29.62,ENE,57,0.0,6.0,97,0.00,,---,0.00,VWS V14.01,2013-04-11 09:25:00,
2013-04-11 04:30:00,45.6,44.8,29.62,ENE,57,0.0,0.0,97,0.00,,---,0.00,VWS V14.01,2013-04-11 09:30:00,
2013-04-11 04:35:00,45.6,44.8,29.62,East,92,2.0,4.0,97,0.01,,---,0.01,VWS V14.01,2013-04-11 09:35:00,
2013-04-11 04:40:00,45.6,44.8,29.62,East,93,2.0,4.0,97,0.01,,---,0.01,VWS V14.01,2013-04-11 09:40:00,
2013-04-11 04:45:00,45.5,44.7,29.62,ESE,105,1.0,6.0,97,0.01,,---,0.01,VWS V14.01,2013-04-11 09:45:00,
2013-04-11 04:50:00,45.5,44.7,29.62,ESE,105,0.0,6.0,97,0.01,,---,0.01,VWS V14.01,2013-04-11 09:50:00,
2013-04-11 04:55:00,45.5,44.7,29.63,ESE,105,0.0,6.0,97,0.01,,---,0.01,VWS V14.01,2013-04-11 09:55:00,
2013-04-11 05:00:00,45.5,44.7,29.63,ESE,105,0.0,0.0,97,0.01,,---,0.01,VWS V14.01,2013-04-11 10:00:00,
2013-04-11 05:05:00,45.5,44.7,29.63,SE,144,0.0,4.0,97,0.02,,---,0.02,VWS V14.01,2013-04-11 10:05:00,
2013-04-11 05:09:00,45.4,44.6,29.63,SE,144,1.0,4.0,97,0.03,,---,0.03,VWS V14.01,2013-04-11 10:09:00,
2013-04-11 05:14:00,45.4,44.6,29.65,SE,144,0.0,4.0,97,0.03,,---,0.03,VWS V14.01,2013-04-11 10:14:00,
2013-04-11 05:19:00,45.4,44.6,29.66,SW,227,2.0,7.0,97,0.04,,---,0.04,VWS V14.01,2013-04-11 10:19:00,
2013-04-11 05:24:00,45.4,44.6,29.65,WSW,240,0.0,7.0,97,0.05,,---,0.05,VWS V14.01,2013-04-11 10:24:00,
2013-04-11 05:29:00,45.5,44.7,29.65,SW,227,1.0,5.0,97,0.06,,---,0.06,VWS V14.01,2013-04-11 10:29:00,
2013-04-11 05:30:00,45.5,44.7,29.65,SW,227,5.0,8.0,97,0.06,,---,0.06,VWS V14.01,2013-04-11 10:30:00,
2013-04-11 05:34:00,45.5,44.7,29.65,WSW,244,0.0,7.0,97,0.06,,---,0.06,VWS V14.01,2013-04-11 10:34:00,
2013-04-11 05:39:00,45.5,44.7,29.65,WSW,244,0.0,7.0,97,0.07,,---,0.07,VWS V14.01,2013-04-11 10:39:00,
2013-04-11 05:44:00,45.5,44.7,29.65,WSW,244,0.0,7.0,97,0.07,,---,0.07,VWS V14.01,2013-04-11 10:44:00,
2013-04-11 05:49:00,45.5,44.7,29.64,WSW,244,0.0,7.0,97,0.07,,---,0.07,VWS V14.01,2013-04-11 10:49:00,
2013-04-11 05:54:00,45.6,44.8,29.63,WSW,244,2.0,7.0,97,0.07,,---,0.07,VWS V14.01,2013-04-11 10:54:00,
2013-04-11 05:59:00,45.6,44.8,29.63,WSW,244,1.0,2.0,97,0.06,,---,0.07,VWS V14.01,2013-04-11 10:59:00,
2013-04-11 06:00:00,45.6,44.8,29.63,WSW,244,1.0,7.0,97,0.07,,---,0.07,VWS V14.01,2013-04-11 11:00:00,
2013-04-11 06:04:00,45.6,44.8,29.63,WSW,244,3.0,4.0,97,0.06,,---,0.07,VWS V14.01,2013-04-11 11:04:00,
2013-04-11 06:09:00,45.6,44.8,29.62,WSW,244,4.0,5.0,97,0.06,,---,0.07,VWS V14.01,2013-04-11 11:09:00,
2013-04-11 06:14:00,45.6,44.8,29.62,WSW,244,3.0,5.0,97,0.06,,---,0.07,VWS V14.01,2013-04-11 11:14:00,
2013-04-11 06:19:00,45.6,44.8,29.62,WSW,244,1.0,5.0,97,0.06,,---,0.07,VWS V14.01,2013-04-11 11:19:00,
2013-04-11 06:24:00,45.6,44.8,29.62,WSW,244,0.0,5.0,97,0.06,,---,0.07,VWS V14.01,2013-04-11 11:24:00,
2013-04-11 06:29:00,45.6,44.8,29.62,WSW,244,0.0,1.0,97,0.01,,---,0.07,VWS V14.01,2013-04-11 11:29:00,
2013-04-11 06:30:00,45.6,44.8,29.62,WSW,244,0.0,5.0,97,0.06,,---,0.07,VWS V14.01,2013-04-11 11:30:00,
2013-04-11 06:34:00,45.6,44.8,29.62,WSW,244,1.0,6.0,97,0.01,,---,0.07,VWS V14.01,2013-04-11 11:34:00,
2013-04-11 06:39:00,45.6,44.8,29.62,WSW,244,0.0,6.0,97,0.01,,---,0.07,VWS V14.01,2013-04-11 11:39:00,
2013-04-11 06:44:00,45.6,44.8,29.62,WSW,244,0.0,6.0,97,0.01,,---,0.07,VWS V14.01,2013-04-11 11:44:00,
2013-04-11 06:49:00,45.7,44.9,29.62,WSW,244,0.0,6.0,97,0.01,,---,0.07,VWS V14.01,2013-04-11 11:49:00,
2013-04-11 06:54:00,45.7,44.9,29.62,WSW,244,0.0,6.0,97,0.01,,---,0.07,VWS V14.01,2013-04-11 11:54:00,
2013-04-11 06:59:00,45.8,45.0,29.63,WSW,244,0.0,0.0,97,0.00,,---,0.07,VWS V14.01,2013-04-11 11:59:00,
2013-04-11 07:00:00,45.8,45.0,29.62,WSW,244,0.0,6.0,97,0.01,,---,0.07,VWS V14.01,2013-04-11 12:00:00,
2013-04-11 07:04:00,45.8,45.0,29.62,WSW,244,2.0,2.0,97,0.00,,---,0.07,VWS V14.01,2013-04-11 12:04:00,
2013-04-11 07:09:00,45.8,45.0,29.63,WSW,244,0.0,3.0,97,0.00,,---,0.07,VWS V14.01,2013-04-11 12:09:00,
2013-04-11 07:14:00,45.9,45.1,29.63,WSW,244,0.0,3.0,97,0.00,,---,0.07,VWS V14.01,2013-04-11 12:14:00,
2013-04-11 07:19:00,45.9,45.1,29.63,WSW,244,0.0,3.0,97,0.00,,---,0.07,VWS V14.01,2013-04-11 12:19:00,
2013-04-11 07:24:00,45.9,45.1,29.63,WSW,244,0.0,3.0,97,0.00,,---,0.07,VWS V14.01,2013-04-11 12:24:00,
2013-04-11 07:29:00,45.9,45.1,29.64,WSW,244,0.0,0.0,97,0.00,,---,0.07,VWS V14.01,2013-04-11 12:29:00,
2013-04-11 07:30:00,45.9,45.1,29.64,WSW,244,0.0,3.0,97,0.00,,---,0.07,VWS V14.01,2013-04-11 12:30:00,
2013-04-11 07:34:00,46.0,45.2,29.64,WSW,244,0.0,1.0,97,0.00,,---,0.07,VWS V14.01,2013-04-11 12:34:00,
2013-04-11 07:39:00,46.0,45.2,29.64,WSW,244,0.0,1.0,97,0.00,,---,0.07,VWS V14.01,2013-04-11 12:39:00,
2013-04-11 07:44:00,46.0,45.2,29.64,WSW,244,0.0,1.0,97,0.00,,---,0.07,VWS V14.01,2013-04-11 12:44:00,
2013-04-11 07:49:00,46.1,45.3,29.63,WSW,244,0.0,1.0,97,0.00,,---,0.07,VWS V14.01,2013-04-11 12:49:00,
2013-04-11 07:54:00,46.1,45.3,29.64,WSW,244,0.0,1.0,97,0.00,,---,0.07,VWS V14.01,2013-04-11 12:54:00,
2013-04-11 07:59:00,46.2,45.4,29.64,WSW,244,2.0,2.0,97,0.00,,---,0.07,VWS V14.01,2013-04-11 12:59:00,
2013-04-11 08:00:00,46.2,45.4,29.64,WSW,244,2.0,4.0,97,0.00,,---,0.07,VWS V14.01,2013-04-11 13:00:00,
2013-04-11 08:04:00,46.3,45.5,29.64,SW,221,0.0,9.0,97,0.00,,---,0.07,VWS V14.01,2013-04-11 13:04:00,
2013-04-11 08:09:00,46.5,45.7,29.64,West,275,6.0,10.0,97,0.00,,---,0.07,VWS V14.01,2013-04-11 13:09:00,
2013-04-11 08:14:00,46.5,45.7,29.63,West,270,6.0,10.0,97,0.00,,---,0.07,VWS V14.01,2013-04-11 13:14:00,
2013-04-11 08:19:00,46.4,45.6,29.63,West,265,5.0,10.0,97,0.00,,---,0.07,VWS V14.01,2013-04-11 13:19:00,
2013-04-11 08:24:00,46.4,45.6,29.64,West,261,6.0,10.0,97,0.00,,---,0.07,VWS V14.01,2013-04-11 13:24:00,
2013-04-11 08:29:00,46.3,45.5,29.64,West,272,5.0,6.0,97,0.00,,---,0.07,VWS V14.01,2013-04-11 13:29:00,
2013-04-11 08:30:00,46.3,45.5,29.63,West,272,5.0,11.0,97,0.00,,---,0.07,VWS V14.01,2013-04-11 13:30:00,
2013-04-11 08:34:00,46.2,45.4,29.63,SW,215,7.0,12.0,97,0.00,,---,0.07,VWS V14.01,2013-04-11 13:34:00,
2013-04-11 08:39:00,46.2,45.4,29.64,West,265,3.0,12.0,97,0.00,,---,0.07,VWS V14.01,2013-04-11 13:39:00,
2013-04-11 08:44:00,46.2,45.4,29.64,NW,316,1.0,12.0,97,0.00,,---,0.07,VWS V14.01,2013-04-11 13:44:00,
2013-04-11 08:49:00,46.1,45.3,29.64,West,259,4.0,12.0,97,0.00,,---,0.07,VWS V14.01,2013-04-11 13:49:00,
2013-04-11 08:54:00,46.0,45.2,29.64,WSW,255,4.0,12.0,97,0.00,,---,0.07,VWS V14.01,2013-04-11 13:54:00,
2013-04-11 08:59:00,46.0,45.2,29.64,WSW,239,4.0,5.0,97,0.00,,---,0.07,VWS V14.01,2013-04-11 13:59:00,
2013-04-11 09:00:00,46.0,45.2,29.64,West,269,5.0,13.0,97,0.00,,---,0.07,VWS V14.01,2013-04-11 14:00:00,
2013-04-11 09:04:00,46.1,45.3,29.63,West,269,3.0,9.0,97,0.00,,---,0.07,VWS V14.01,2013-04-11 14:04:00,
2013-04-11 09:09:00,46.1,45.3,29.63,SW,234,6.0,9.0,97,0.00,,---,0.07,VWS V14.01,2013-04-11 14:09:00,
2013-04-11 09:14:00,46.0,45.2,29.63,West,261,6.0,12.0,97,0.00,,---,0.07,VWS V14.01,2013-04-11 14:14:00,
2013-04-11 09:19:00,45.9,45.1,29.63,WNW,290,3.0,12.0,97,0.00,,---,0.07,VWS V14.01,2013-04-11 14:19:00,
2013-04-11 09:24:00,45.9,45.1,29.62,WNW,294,4.0,12.0,97,0.00,,---,0.07,VWS V14.01,2013-04-11 14:24:00,
2013-04-11 09:29:00,46.0,44.9,29.62,West,278,5.0,5.0,96,0.00,,---,0.07,VWS V14.01,2013-04-11 14:29:00,
2013-04-11 09:30:00,46.0,45.2,29.62,SW,231,5.0,12.0,97,0.00,,---,0.07,VWS V14.01,2013-04-11 14:30:00,
2013-04-11 09:34:00,46.1,45.0,29.62,West,271,5.0,9.0,96,0.00,,---,0.07,VWS V14.01,2013-04-11 14:34:00,
2013-04-11 09:39:00,45.9,44.8,29.62,WSW,255,5.0,9.0,96,0.00,,---,0.07,VWS V14.01,2013-04-11 14:39:00,
2013-04-11 09:44:00,45.8,44.7,29.63,WSW,252,8.0,14.0,96,0.00,,---,0.07,VWS V14.01,2013-04-11 14:44:00,
2013-04-11 09:49:00,45.8,44.7,29.63,West,269,6.0,14.0,96,0.00,,---,0.07,VWS V14.01,2013-04-11 14:49:00,
2013-04-11 09:54:00,46.0,44.9,29.62,West,273,6.0,14.0,96,0.00,,---,0.07,VWS V14.01,2013-04-11 14:54:00,
2013-04-11 09:59:00,46.2,45.1,29.62,WNW,283,5.0,7.0,96,0.00,,---,0.07,VWS V14.01,2013-04-11 14:59:00,
2013-04-11 10:00:00,46.2,45.1,29.62,West,269,7.0,14.0,96,0.00,,---,0.07,VWS V14.01,2013-04-11 15:00:00,
2013-04-11 10:04:00,46.4,45.0,29.62,West,269,7.0,11.0,95,0.00,,---,0.07,VWS V14.01,2013-04-11 15:04:00,
2013-04-11 10:09:00,46.6,45.2,29.63,WNW,290,9.0,11.0,95,0.00,,---,0.07,VWS V14.01,2013-04-11 15:09:00,
2013-04-11 10:14:00,46.6,45.0,29.63,West,272,8.0,11.0,94,0.00,,---,0.07,VWS V14.01,2013-04-11 15:14:00,
2013-04-11 10:19:00,46.9,45.3,29.64,West,278,5.0,11.0,94,0.00,,---,0.07,VWS V14.01,2013-04-11 15:19:00,
2013-04-11 10:24:00,47.5,45.6,29.64,West,259,4.0,11.0,93,0.00,,---,0.07,VWS V14.01,2013-04-11 15:24:00,
2013-04-11 10:29:00,47.5,45.3,29.63,West,275,6.0,7.0,92,0.00,,---,0.07,VWS V14.01,2013-04-11 15:29:00,
2013-04-11 10:30:00,47.5,45.3,29.63,West,275,6.0,11.0,92,0.00,,---,0.07,VWS V14.01,2013-04-11 15:30:00,
2013-04-11 10:34:00,47.7,45.5,29.63,West,277,5.0,8.0,92,0.00,,---,0.07,VWS V14.01,2013-04-11 15:34:00,
2013-04-11 10:39:00,48.1,45.9,29.62,SW,235,2.0,8.0,92,0.00,,---,0.07,VWS V14.01,2013-04-11 15:39:00,
2013-04-11 10:44:00,48.2,45.7,29.63,NW,315,4.0,8.0,91,0.00,,---,0.07,VWS V14.01,2013-04-11 15:44:00,
2013-04-11 10:49:00,48.3,45.5,29.63,WSW,239,5.0,9.0,90,0.00,,---,0.07,VWS V14.01,2013-04-11 15:49:00,
2013-04-11 10:54:00,48.3,45.5,29.63,West,262,4.0,9.0,90,0.00,,---,0.07,VWS V14.01,2013-04-11 15:54:00,
2013-04-11 10:59:00,48.2,45.4,29.63,WSW,250,7.0,7.0,90,0.00,,---,0.07,VWS V14.01,2013-04-11 15:59:00,
2013-04-11 11:00:00,48.2,45.4,29.63,SW,232,7.0,9.0,90,0.00,,---,0.07,VWS V14.01,2013-04-11 16:00:00,
2013-04-11 11:04:00,48.5,45.7,29.63,West,259,6.0,9.0,90,0.00,,---,0.07,VWS V14.01,2013-04-11 16:04:00,
2013-04-11 11:09:00,48.8,46.0,29.63,WNW,287,2.0,9.0,90,0.00,,---,0.07,VWS V14.01,2013-04-11 16:09:00,
2013-04-11 11:14:00,49.0,45.9,29.63,NW,313,1.0,9.0,89,0.00,,---,0.07,VWS V14.01,2013-04-11 16:14:00,
2013-04-11 11:19:00,48.9,46.7,29.63,West,281,1.0,9.0,92,0.00,,---,0.07,VWS V14.01,2013-04-11 16:19:00,
2013-04-11 11:24:00,48.8,45.4,29.63,West,263,5.0,13.0,88,0.00,,---,0.07,VWS V14.01,2013-04-11 16:24:00,
2013-04-11 11:29:00,48.7,45.3,29.63,WSW,254,5.0,7.0,88,0.00,,---,0.07,VWS V14.01,2013-04-11 16:29:00,
2013-04-11 11:30:00,48.7,45.3,29.63,WSW,253,6.0,13.0,88,0.00,,---,0.07,VWS V14.01,2013-04-11 16:30:00,
2013-04-11 11:34:00,48.7,45.3,29.63,West,274,7.0,8.0,88,0.00,,---,0.07,VWS V14.01,2013-04-11 16:34:00,
2013-04-11 11:39:00,48.9,44.9,29.63,WSW,243,10.0,14.0,86,0.00,,---,0.07,VWS V14.01,2013-04-11 16:39:00,
2013-04-11 11:44:00,49.0,45.0,29.62,West,269,5.0,14.0,86,0.00,,---,0.07,VWS V14.01,2013-04-11 16:44:00,
2013-04-11 11:49:00,49.0,45.0,29.62,West,271,9.0,14.0,86,0.00,,---,0.07,VWS V14.01,2013-04-11 16:49:00,
2013-04-11 11:54:00,49.0,44.7,29.63,West,267,4.0,14.0,85,0.00,,---,0.07,VWS V14.01,2013-04-11 16:54:00,
2013-04-11 11:59:00,49.0,45.0,29.63,West,259,5.0,8.0,86,0.00,,---,0.07,VWS V14.01,2013-04-11 16:59:00,
2013-04-11 12:00:00,49.0,45.0,29.63,WSW,246,8.0,14.0,86,0.00,,---,0.07,VWS V14.01,2013-04-11 17:00:00,
2013-04-11 12:04:00,48.9,44.9,29.63,West,261,6.0,10.0,86,0.00,,---,0.07,VWS V14.01,2013-04-11 17:04:00,
2013-04-11 12:09:00,48.7,45.0,29.64,West,262,4.0,10.0,87,0.00,,---,0.07,VWS V14.01,2013-04-11 17:09:00,
2013-04-11 12:14:00,48.5,44.8,29.64,West,280,4.0,10.0,87,0.00,,---,0.07,VWS V14.01,2013-04-11 17:14:00,
2013-04-11 12:19:00,48.5,44.8,29.64,West,280,6.0,11.0,87,0.00,,---,0.07,VWS V14.01,2013-04-11 17:19:00,
2013-04-11 12:24:00,48.7,45.3,29.63,West,278,0.0,11.0,88,0.00,,---,0.07,VWS V14.01,2013-04-11 17:24:00,
2013-04-11 12:29:00,48.8,44.8,29.63,WSW,256,4.0,5.0,86,0.00,,---,0.07,VWS V14.01,2013-04-11 17:29:00,
2013-04-11 12:30:00,48.8,44.8,29.63,WSW,256,5.0,11.0,86,0.00,,---,0.07,VWS V14.01,2013-04-11 17:30:00,
2013-04-11 12:34:00,48.9,44.9,29.63,SW,236,4.0,12.0,86,0.00,,---,0.07,VWS V14.01,2013-04-11 17:34:00,
2013-04-11 12:39:00,48.9,44.9,29.63,WSW,254,8.0,12.0,86,0.00,,---,0.07,VWS V14.01,2013-04-11 17:39:00,
2013-04-11 12:44:00,48.7,44.7,29.64,SW,236,5.0,12.0,86,0.00,,---,0.07,VWS V14.01,2013-04-11 17:44:00,
2013-04-11 12:49:00,48.8,44.8,29.63,WSW,244,2.0,13.0,86,0.00,,---,0.07,VWS V14.01,2013-04-11 17:49:00,
2013-04-11 12:54:00,48.9,44.6,29.63,WSW,250,6.0,13.0,85,0.00,,---,0.07,VWS V14.01,2013-04-11 17:54:00,
2013-04-11 12:59:00,48.9,44.9,29.63,SW,219,10.0,13.0,86,0.00,,---,0.07,VWS V14.01,2013-04-11 17:59:00,
2013-04-11 13:00:00,48.9,44.9,29.63,SW,219,10.0,13.0,86,0.00,,---,0.07,VWS V14.01,2013-04-11 18:00:00,
2013-04-11 13:04:00,49.0,45.0,29.63,WSW,241,4.0,12.0,86,0.00,,---,0.07,VWS V14.01,2013-04-11 18:04:00,
2013-04-11 13:09:00,49.2,45.2,29.63,WSW,250,6.0,12.0,86,0.00,,---,0.07,VWS V14.01,2013-04-11 18:09:00,
2013-04-11 13:14:00,49.1,44.8,29.63,SW,223,3.0,15.0,85,0.00,,---,0.07,VWS V14.01,2013-04-11 18:14:00,
2013-04-11 13:19:00,48.8,44.8,29.64,WSW,250,6.0,15.0,86,0.00,,---,0.07,VWS V14.01,2013-04-11 18:19:00,
2013-04-11 13:24:00,48.5,44.8,29.64,SW,223,4.0,15.0,87,0.00,,---,0.07,VWS V14.01,2013-04-11 18:24:00,
2013-04-11 13:29:00,48.4,45.3,29.64,West,267,4.0,6.0,89,0.00,,---,0.07,VWS V14.01,2013-04-11 18:29:00,
2013-04-11 13:30:00,48.4,45.3,29.64,West,262,5.0,15.0,89,0.00,,---,0.07,VWS V14.01,2013-04-11 18:30:00,
2013-04-11 13:34:00,48.2,45.1,29.64,West,266,6.0,12.0,89,0.00,,---,0.07,VWS V14.01,2013-04-11 18:34:00,
2013-04-11 13:39:00,48.1,45.3,29.64,WSW,243,7.0,15.0,90,0.00,,---,0.07,VWS V14.01,2013-04-11 18:39:00,
2013-04-11 13:44:00,48.1,45.0,29.64,SW,230,7.0,15.0,89,0.00,,---,0.07,VWS V14.01,2013-04-11 18:44:00,
2013-04-11 13:49:00,47.8,44.7,29.63,SW,223,5.0,15.0,89,0.00,,---,0.07,VWS V14.01,2013-04-11 18:49:00,
2013-04-11 13:54:00,47.8,45.0,29.63,SW,232,1.0,15.0,90,0.00,,---,0.07,VWS V14.01,2013-04-11 18:54:00,
2013-04-11 13:59:00,47.8,45.0,29.64,SW,229,4.0,9.0,90,0.00,,---,0.07,VWS V14.01,2013-04-11 18:59:00,
2013-04-11 14:00:00,47.8,45.0,29.64,SW,215,9.0,15.0,90,0.00,,---,0.07,VWS V14.01,2013-04-11 19:00:00,
2013-04-11 14:04:00,47.6,44.8,29.63,SSW,209,5.0,12.0,90,0.00,,---,0.07,VWS V14.01,2013-04-11 19:04:00,
2013-04-11 14:09:00,47.4,44.6,29.63,WSW,244,6.0,14.0,90,0.00,,---,0.07,VWS V14.01,2013-04-11 19:09:00,
2013-04-11 14:14:00,47.4,44.6,29.63,WSW,253,3.0,14.0,90,0.00,,---,0.07,VWS V14.01,2013-04-11 19:14:00,
2013-04-11 14:19:00,47.4,44.9,29.63,SW,221,0.0,14.0,91,0.00,,---,0.07,VWS V14.01,2013-04-11 19:19:00,
2013-04-11 14:24:00,47.4,44.9,29.63,SW,221,8.0,14.0,91,0.00,,---,0.07,VWS V14.01,2013-04-11 19:24:00,
2013-04-11 14:29:00,47.4,44.6,29.63,SSW,196,4.0,10.0,90,0.00,,---,0.07,VWS V14.01,2013-04-11 19:29:00,
2013-04-11 14:30:00,47.4,44.6,29.63,South,184,10.0,14.0,90,0.00,,---,0.07,VWS V14.01,2013-04-11 19:30:00,
2013-04-11 14:34:00,47.6,44.5,29.64,WSW,248,8.0,16.0,89,0.00,,---,0.07,VWS V14.01,2013-04-11 19:34:00,
2013-04-11 14:39:00,47.5,44.4,29.63,WSW,249,7.0,16.0,89,0.00,,---,0.07,VWS V14.01,2013-04-11 19:39:00,
2013-04-11 14:44:00,47.4,44.0,29.62,WSW,249,10.0,16.0,88,0.00,,---,0.07,VWS V14.01,2013-04-11 19:44:00,
2013-04-11 14:49:00,47.3,43.9,29.63,SW,214,6.0,16.0,88,0.00,,---,0.07,VWS V14.01,2013-04-11 19:49:00,
2013-04-11 14:54:00,47.3,43.9,29.62,WSW,253,5.0,16.0,88,0.00,,---,0.07,VWS V14.01,2013-04-11 19:54:00,
2013-04-11 14:59:00,47.2,43.5,29.62,West,270,6.0,9.0,87,0.00,,---,0.07,VWS V14.01,2013-04-11 19:59:00,
2013-04-11 15:00:00,47.2,43.5,29.62,WSW,247,4.0,16.0,87,0.00,,---,0.07,VWS V14.01,2013-04-11 20:00:00,
2013-04-11 15:04:00,47.2,43.5,29.62,West,269,10.0,15.0,87,0.00,,---,0.07,VWS V14.01,2013-04-11 20:04:00,
2013-04-11 15:09:00,47.2,43.5,29.61,SW,236,4.0,15.0,87,0.00,,---,0.07,VWS V14.01,2013-04-11 20:09:00,
2013-04-11 15:14:00,47.0,43.3,29.62,WSW,246,5.0,15.0,87,0.00,,---,0.07,VWS V14.01,2013-04-11 20:14:00,
2013-04-11 15:19:00,46.8,43.1,29.62,SW,235,13.0,19.0,87,0.00,,---,0.07,VWS V14.01,2013-04-11 20:19:00,
2013-04-11 15:24:00,46.7,43.3,29.62,WSW,258,11.0,19.0,88,0.00,,---,0.07,VWS V14.01,2013-04-11 20:24:00,
2013-04-11 15:29:00,46.4,42.8,29.61,WSW,248,11.0,15.0,87,0.00,,---,0.07,VWS V14.01,2013-04-11 20:29:00,
2013-04-11 15:30:00,46.5,42.8,29.61,WSW,253,6.0,19.0,87,0.00,,---,0.07,VWS V14.01,2013-04-11 20:30:00,
2013-04-11 15:34:00,46.1,42.8,29.62,SW,229,6.0,15.0,88,0.00,,---,0.07,VWS V14.01,2013-04-11 20:34:00,
2013-04-11 15:39:00,45.8,42.5,29.62,SW,232,10.0,16.0,88,0.00,,---,0.07,VWS V14.01,2013-04-11 20:39:00,
2013-04-11 15:44:00,45.5,41.9,29.62,SW,220,10.0,20.0,87,0.00,,---,0.07,VWS V14.01,2013-04-11 20:44:00,
2013-04-11 15:49:00,45.4,42.1,29.63,WNW,287,6.0,20.0,88,0.00,,---,0.07,VWS V14.01,2013-04-11 20:49:00,
2013-04-11 15:54:00,45.0,41.7,29.63,WSW,258,12.0,23.0,88,0.00,,---,0.07,VWS V14.01,2013-04-11 20:54:00,
2013-04-11 15:59:00,44.5,41.5,29.63,WSW,255,7.0,10.0,89,0.00,,---,0.07,VWS V14.01,2013-04-11 20:59:00,
2013-04-11 16:00:00,44.6,41.6,29.63,WSW,238,6.0,23.0,89,0.00,,---,0.07,VWS V14.01,2013-04-11 21:00:00,
2013-04-11 16:04:00,44.0,41.3,29.63,West,262,8.0,18.0,90,0.00,,---,0.07,VWS V14.01,2013-04-11 21:04:00,
2013-04-11 16:09:00,43.7,41.0,29.64,SW,215,9.0,18.0,90,0.00,,---,0.07,VWS V14.01,2013-04-11 21:09:00,
2013-04-11 16:14:00,43.6,40.9,29.63,West,259,5.0,18.0,90,0.00,,---,0.07,VWS V14.01,2013-04-11 21:14:00,
2013-04-11 16:19:00,43.6,40.6,29.63,SW,235,4.0,19.0,89,0.00,,---,0.07,VWS V14.01,2013-04-11 21:19:00,
2013-04-11 16:24:00,43.8,40.2,29.63,WSW,247,6.0,19.0,87,0.00,,---,0.07,VWS V14.01,2013-04-11 21:24:00,
2013-04-11 16:29:00,44.0,40.1,29.63,WSW,256,6.0,11.0,86,0.00,,---,0.07,VWS V14.01,2013-04-11 21:29:00,
2013-04-11 16:30:00,44.0,40.1,29.63,West,263,6.0,19.0,86,0.00,,---,0.07,VWS V14.01,2013-04-11 21:30:00,
2013-04-11 16:34:00,44.2,40.3,29.63,SW,228,10.0,16.0,86,0.00,,---,0.07,VWS V14.01,2013-04-11 21:34:00,
2013-04-11 16:39:00,44.2,40.0,29.63,West,267,11.0,16.0,85,0.00,,---,0.07,VWS V14.01,2013-04-11 21:39:00,
2013-04-11 16:44:00,44.4,39.9,29.63,WSW,253,12.0,20.0,84,0.00,,---,0.07,VWS V14.01,2013-04-11 21:44:00,
2013-04-11 16:49:00,44.5,39.7,29.64,WSW,243,7.0,20.0,83,0.00,,---,0.07,VWS V14.01,2013-04-11 21:49:00,
2013-04-11 16:55:00,44.6,39.5,29.63,WSW,248,7.0,20.0,82,0.00,,---,0.07,VWS V14.01,2013-04-11 21:55:00,
2013-04-11 17:00:00,44.7,39.2,29.63,West,263,6.0,18.0,81,0.00,,---,0.07,VWS V14.01,2013-04-11 22:00:00,
2013-04-11 17:05:00,44.8,39.0,29.63,West,263,7.0,18.0,80,0.00,,---,0.07,VWS V14.01,2013-04-11 22:05:00,
2013-04-11 17:10:00,45.0,39.2,29.63,West,269,0.0,18.0,80,0.00,,---,0.07,VWS V14.01,2013-04-11 22:10:00,
2013-04-11 17:15:00,45.0,38.9,29.63,West,265,8.0,18.0,79,0.00,,---,0.07,VWS V14.01,2013-04-11 22:15:00,
2013-04-11 17:20:00,45.0,38.9,29.62,SW,219,7.0,18.0,79,0.00,,---,0.07,VWS V14.01,2013-04-11 22:20:00,
2013-04-11 17:25:00,44.9,38.8,29.63,WSW,254,5.0,18.0,79,0.00,,---,0.07,VWS V14.01,2013-04-11 22:25:00,
2013-04-11 17:30:00,44.9,39.1,29.63,WSW,251,5.0,6.0,80,0.00,,---,0.07,VWS V14.01,2013-04-11 22:30:00,
2013-04-11 17:35:00,44.6,38.2,29.63,WSW,252,11.0,12.0,78,0.00,,---,0.07,VWS V14.01,2013-04-11 22:35:00,
2013-04-11 17:40:00,43.9,38.1,29.64,WSW,256,14.0,16.0,80,0.00,,---,0.07,VWS V14.01,2013-04-11 22:40:00,
2013-04-11 17:45:00,43.4,37.7,29.64,SW,216,7.0,16.0,80,0.00,,---,0.07,VWS V14.01,2013-04-11 22:45:00,
2013-04-11 17:50:00,43.0,37.6,29.65,West,261,5.0,18.0,81,0.00,,---,0.07,VWS V14.01,2013-04-11 22:50:00,
2013-04-11 17:55:00,42.8,37.7,29.65,WSW,246,6.0,19.0,82,0.00,,---,0.07,VWS V14.01,2013-04-11 22:55:00,
2013-04-11 18:00:00,42.5,37.1,29.64,SW,214,11.0,11.0,81,0.00,,---,0.07,VWS V14.01,2013-04-11 23:00:00,
2013-04-11 18:05:00,42.0,36.3,29.64,WSW,255,4.0,18.0,80,0.00,,---,0.07,VWS V14.01,2013-04-11 23:05:00,
2013-04-11 18:10:00,41.7,36.0,29.64,West,273,6.0,18.0,80,0.00,,---,0.07,VWS V14.01,2013-04-11 23:10:00,
2013-04-11 18:15:00,41.6,36.2,29.63,West,268,4.0,18.0,81,0.00,,---,0.07,VWS V14.01,2013-04-11 23:15:00,
2013-04-11 18:20:00,41.6,36.2,29.63,WSW,245,6.0,18.0,81,0.00,,---,0.07,VWS V14.01,2013-04-11 23:20:00,
2013-04-11 18:25:00,41.6,36.2,29.64,SW,228,4.0,18.0,81,0.00,,---,0.07,VWS V14.01,2013-04-11 23:25:00,
2013-04-11 18:30:00,41.8,36.4,29.64,SW,224,4.0,7.0,81,0.00,,---,0.07,VWS V14.01,2013-04-11 23:30:00,
2013-04-11 18:35:00,41.8,36.4,29.65,West,265,7.0,11.0,81,0.00,,---,0.07,VWS V14.01,2013-04-11 23:35:00,
2013-04-11 18:40:00,41.8,36.1,29.65,West,259,5.0,15.0,80,0.00,,---,0.07,VWS V14.01,2013-04-11 23:40:00,
2013-04-11 18:45:00,41.8,36.1,29.65,South,185,13.0,15.0,80,0.00,,---,0.07,VWS V14.01,2013-04-11 23:45:00,
2013-04-11 18:50:00,41.7,35.7,29.65,WNW,292,5.0,15.0,79,0.00,,---,0.07,VWS V14.01,2013-04-11 23:50:00,
2013-04-11 18:55:00,41.6,35.6,29.65,WSW,258,8.0,18.0,79,0.00,,---,0.07,VWS V14.01,2013-04-11 23:55:00,
2013-04-11 19:00:00,41.5,35.5,29.65,SW,235,11.0,11.0,79,0.00,,---,0.07,VWS V14.01,2013-04-12 00:00:00,
2013-04-11 19:05:00,41.4,35.4,29.65,WSW,253,6.0,15.0,79,0.00,,---,0.07,VWS V14.01,2013-04-12 00:05:00,
2013-04-11 19:10:00,41.3,35.6,29.65,SW,236,5.0,15.0,80,0.00,,---,0.07,VWS V14.01,2013-04-12 00:10:00,
2013-04-11 19:15:00,41.2,35.8,29.65,West,261,12.0,15.0,81,0.00,,---,0.07,VWS V14.01,2013-04-12 00:15:00,
2013-04-11 19:20:00,41.1,35.7,29.65,West,263,5.0,18.0,81,0.00,,---,0.07,VWS V14.01,2013-04-12 00:20:00,
2013-04-11 19:25:00,40.9,35.8,29.65,WSW,238,8.0,18.0,82,0.00,,---,0.07,VWS V14.01,2013-04-12 00:25:00,
2013-04-11 19:30:00,40.9,35.8,29.65,South,186,2.0,6.0,82,0.00,,---,0.07,VWS V14.01,2013-04-12 00:30:00,
2013-04-11 19:35:00,40.8,35.4,29.65,WSW,240,4.0,15.0,81,0.00,,---,0.07,VWS V14.01,2013-04-12 00:35:00,
2013-04-11 19:40:00,40.8,35.4,29.64,West,269,5.0,15.0,81,0.00,,---,0.07,VWS V14.01,2013-04-12 00:40:00,
2013-04-11 19:45:00,40.8,35.4,29.64,West,271,6.0,15.0,81,0.00,,---,0.07,VWS V14.01,2013-04-12 00:45:00,
2013-04-11 19:50:00,40.7,35.3,29.64,SW,233,14.0,16.0,81,0.00,,---,0.07,VWS V14.01,2013-04-12 00:50:00,
2013-04-11 19:55:00,40.7,35.0,29.65,WSW,257,6.0,16.0,80,0.00,,---,0.07,VWS V14.01,2013-04-12 00:55:00,
2013-04-11 20:00:00,40.7,34.7,29.65,WSW,245,10.0,11.0,79,0.00,,---,0.07,VWS V14.01,2013-04-12 01:00:00,
2013-04-11 20:05:00,40.7,34.4,29.65,WSW,250,9.0,15.0,78,0.00,,---,0.07,VWS V14.01,2013-04-12 01:05:00,
2013-04-11 20:10:00,40.6,34.3,29.65,West,267,7.0,15.0,78,0.00,,---,0.07,VWS V14.01,2013-04-12 01:10:00,
2013-04-11 20:15:00,40.6,34.9,29.64,West,262,5.0,15.0,80,0.00,,---,0.07,VWS V14.01,2013-04-12 01:15:00,
2013-04-11 20:20:00,40.5,35.1,29.64,WSW,242,5.0,15.0,81,0.00,,---,0.07,VWS V14.01,2013-04-12 01:20:00,
2013-04-11 20:25:00,40.4,35.3,29.65,SW,235,10.0,15.0,82,0.00,,---,0.07,VWS V14.01,2013-04-12 01:25:00,
2013-04-11 20:30:00,40.4,35.7,29.65,WSW,250,4.0,7.0,83,0.00,,---,0.07,VWS V14.01,2013-04-12 01:30:00,
2013-04-11 20:35:00,40.2,35.2,29.65,West,260,12.0,12.0,82,0.00,,---,0.07,VWS V14.01,2013-04-12 01:35:00,
2013-04-11 20:40:00,40.1,35.1,29.65,WSW,255,4.0,12.0,82,0.00,,---,0.07,VWS V14.01,2013-04-12 01:40:00,
2013-04-11 20:45:00,40.0,34.7,29.64,WSW,253,6.0,16.0,81,0.00,,---,0.07,VWS V14.01,2013-04-12 01:45:00,
2013-04-11 20:50:00,39.9,34.2,29.65,West,281,5.0,16.0,80,0.00,,---,0.07,VWS V14.01,2013-04-12 01:50:00,
2013-04-11 20:55:00,39.8,34.1,29.65,WNW,289,6.0,16.0,80,0.00,,---,0.07,VWS V14.01,2013-04-12 01:55:00,
2013-04-11 21:00:00,39.7,34.0,29.66,West,259,5.0,5.0,80,0.00,,---,0.07,VWS V14.01,2013-04-12 02:00:00,
2013-04-11 21:05:00,39.7,34.0,29.66,West,264,6.0,8.0,80,0.00,,---,0.07,VWS V14.01,2013-04-12 02:05:00,
2013-04-11 21:10:00,39.6,34.3,29.66,West,281,6.0,13.0,81,0.00,,---,0.07,VWS V14.01,2013-04-12 02:10:00,
2013-04-11 21:15:00,39.6,34.3,29.66,NNW,328,8.0,13.0,81,0.00,,---,0.07,VWS V14.01,2013-04-12 02:15:00,
2013-04-11 21:20:00,39.5,33.8,29.66,West,262,6.0,14.0,80,0.00,,---,0.07,VWS V14.01,2013-04-12 02:20:00,
2013-04-11 21:25:00,39.3,33.7,29.66,WSW,253,10.0,14.0,80,0.00,,---,0.07,VWS V14.01,2013-04-12 02:25:00,
2013-04-11 21:30:00,39.2,33.6,29.67,WSW,242,10.0,10.0,80,0.00,,---,0.07,VWS V14.01,2013-04-12 02:30:00,
2013-04-11 21:35:00,39.2,33.9,29.67,West,265,7.0,15.0,81,0.00,,---,0.07,VWS V14.01,2013-04-12 02:35:00,
2013-04-11 21:40:00,39.1,33.8,29.66,WSW,256,10.0,15.0,81,0.00,,---,0.07,VWS V14.01,2013-04-12 02:40:00,
2013-04-11 21:45:00,39.0,33.4,29.67,WSW,255,6.0,15.0,80,0.00,,---,0.07,VWS V14.01,2013-04-12 02:45:00,
2013-04-11 21:50:00,38.9,33.3,29.66,NW,320,3.0,15.0,80,0.00,,---,0.07,VWS V14.01,2013-04-12 02:50:00,
2013-04-11 21:55:00,38.9,33.6,29.66,WSW,245,8.0,15.0,81,0.00,,---,0.07,VWS V14.01,2013-04-12 02:55:00,
2013-04-11 22:00:00,38.8,33.5,29.67,WSW,237,6.0,9.0,81,0.00,,---,0.07,VWS V14.01,2013-04-12 03:00:00,
2013-04-11 22:05:00,38.6,32.7,29.66,West,263,7.0,13.0,79,0.00,,---,0.07,VWS V14.01,2013-04-12 03:05:00,
2013-04-11 22:10:00,38.5,32.6,29.67,West,259,10.0,13.0,79,0.00,,---,0.07,VWS V14.01,2013-04-12 03:10:00,
2013-04-11 22:15:00,38.5,32.6,29.67,West,271,5.0,16.0,79,0.00,,---,0.07,VWS V14.01,2013-04-12 03:15:00,
2013-04-11 22:20:00,38.4,32.2,29.67,SW,227,4.0,16.0,78,0.00,,---,0.07,VWS V14.01,2013-04-12 03:20:00,
2013-04-11 22:25:00,38.4,32.2,29.67,West,262,2.0,16.0,78,0.00,,---,0.07,VWS V14.01,2013-04-12 03:25:00,
2013-04-11 22:30:00,38.3,32.4,29.67,West,274,5.0,5.0,79,0.00,,---,0.07,VWS V14.01,2013-04-12 03:30:00,
2013-04-11 22:35:00,38.2,32.3,29.67,West,271,10.0,12.0,79,0.00,,---,0.07,VWS V14.01,2013-04-12 03:35:00,
2013-04-11 22:40:00,38.2,32.0,29.67,WSW,242,6.0,12.0,78,0.00,,---,0.07,VWS V14.01,2013-04-12 03:40:00,
2013-04-11 22:45:00,38.1,31.9,29.67,WSW,247,2.0,12.0,78,0.00,,---,0.07,VWS V14.01,2013-04-12 03:45:00,
2013-04-11 22:50:00,38.1,32.2,29.67,WSW,248,7.0,12.0,79,0.00,,---,0.07,VWS V14.01,2013-04-12 03:50:00,
2013-04-11 22:55:00,38.0,32.4,29.67,SW,227,5.0,12.0,80,0.00,,---,0.07,VWS V14.01,2013-04-12 03:55:00,
2013-04-11 23:00:00,38.0,32.4,29.67,WSW,255,5.0,10.0,80,0.00,,---,0.07,VWS V14.01,2013-04-12 04:00:00,
2013-04-11 23:05:00,37.9,32.3,29.67,WNW,282,5.0,10.0,80,0.00,,---,0.07,VWS V14.01,2013-04-12 04:05:00,
2013-04-11 23:10:00,37.8,32.2,29.67,WNW,286,3.0,10.0,80,0.00,,---,0.07,VWS V14.01,2013-04-12 04:10:00,
2013-04-11 23:15:00,37.8,32.2,29.67,SW,234,4.0,12.0,80,0.00,,---,0.07,VWS V14.01,2013-04-12 04:15:00,
2013-04-11 23:20:00,37.7,31.8,29.67,West,267,4.0,16.0,79,0.00,,---,0.07,VWS V14.01,2013-04-12 04:20:00,
2013-04-11 23:25:00,37.7,31.8,29.67,WSW,246,6.0,16.0,79,0.00,,---,0.07,VWS V14.01,2013-04-12 04:25:00,
2013-04-11 23:30:00,37.7,32.1,29.66,SW,229,6.0,6.0,80,0.00,,---,0.07,VWS V14.01,2013-04-12 04:30:00,
2013-04-11 23:35:00,37.6,32.0,29.66,West,266,5.0,8.0,80,0.00,,---,0.07,VWS V14.01,2013-04-12 04:35:00,
2013-04-11 23:40:00,37.5,31.9,29.67,SW,222,1.0,8.0,80,0.00,,---,0.07,VWS V14.01,2013-04-12 04:40:00,
2013-04-11 23:45:00,37.5,31.9,29.67,South,189,5.0,15.0,80,0.00,,---,0.07,VWS V14.01,2013-04-12 04:45:00,
2013-04-11 23:50:00,37.5,31.9,29.67,WSW,257,4.0,15.0,80,0.00,,---,0.07,VWS V14.01,2013-04-12 04:50:00,
2013-04-11 23:55:00,37.5,31.9,29.67,West,263,2.0,15.0,80,0.00,,---,0.07,VWS V14.01,2013-04-12 04:55:00,